Location: Gälforsberget
(66.6500°N, 22.4167°E)
Time: 05:21:03
(UTC+00:00)

USA 245 - Pass Details

Date: 11 April 2026
Orbit: 264 x 994 km, 97.9° (Epoch: 15 October)

Event Time Altitude Azimuth Distance (km) Brightness Sun altitude
Exits shadow 19:40:43 - 178° (S) 2,294 6.0 -8.7°
Reaches altitude 10° 19:41:41 10° 181° (S) 1,912 5.6 -8.8°
Maximum altitude 19:45:49 55° 259° (W) 818 4.4 -9.1°
Drops below altitude 10° 19:50:51 10° 337° (NNW) 2,323 7.9 -9.4°
Sets 19:53:27 0° 342° (NNW) 3,347 8.8 -9.6°
